{"data":{"norad_id":41241,"intl_designator":"2016-003A","name":"IRNSS-1E","alt_names":[],"object_type":"PAYLOAD","status":"ACTIVE","operator":null,"country":"IND","launch_date":"2016-01-20","launch_site_code":"SRILR","launch_vehicle":null,"mission":null,"orbit_class":"UNKNOWN","rcs_meters":9.9385,"size_class":null,"mass_kg":null,"dimensions":null,"purposes":["comms","nav"],"wikipedia_slug":null,"has_3d_model":false,"image_url":null,"decayed_at":null,"tle_current":{"epoch":"2026-05-24T16:17:56.290272Z","epoch_age_seconds":102124,"freshness":"FRESH","line1":"1 41241U 16003A   26144.67912373 -.00000309  00000+0  00000+0 0  9998","line2":"2 41241  33.1851  60.0904 0017779 181.3320 357.1274  1.00275732 37841","mean_motion":1.00275732,"eccentricity":0.0017779,"inclination_deg":33.1851,"raan_deg":60.0904,"arg_perigee_deg":181.332,"mean_anomaly_deg":357.1274,"bstar":0,"rev_number":3784,"period_min":1436.0403771473,"perigee_km":35710.52580031,"apogee_km":35860.451219899,"semimajor_km":42163.625510105,"source":"CELESTRAK","updated_at":"2026-05-25T13:38:23.527481Z"}}}